When you browse on this site, cookies collect data to enhance your experience and personalize the content and advertising you see.
Visit our Privacy Policy to learn more. By continuing to use the site, you agree to this use of cookies and data.
  • In Deutschland
  • Länderverzeichnis
  • Für 7 Tage
  • Wassertemperatur
  • Wetterkarte
  • Widgets
  • user-avatar
    Anmelden

    Stündliche Wetter Kurovskoe

    Heute, 16 Oktober, Mittwoch

    Zeit Temperatur Niederschläge Wind Luftdruck Luftfeuchtigkeit
    00:00 +3°C° 0 mm 2 m/S 743 mmHg 93%
    01:00 +2°C° 0 mm 2 m/S 743 mmHg 93%
    02:00 +1°C° 0 mm 3 m/S 744 mmHg 93%
    03:00 +1°C° 0 mm 3 m/S 744 mmHg 93%
    04:00 0°C° 0 mm 3 m/S 744 mmHg 92%
    05:00 0°C° 0 mm 3 m/S 744 mmHg 92%
    06:00 0°C° 0 mm 3 m/S 745 mmHg 93%
    07:00 -1°C° 0 mm 4 m/S 745 mmHg 93%
    08:00 0°C° 0.1 mm 4 m/S 745 mmHg 94%
    09:00 0°C° 0.1 mm 4 m/S 746 mmHg 94%
    10:00 0°C° 0.1 mm 4 m/S 746 mmHg 95%
    11:00 0°C° 0.2 mm 4 m/S 747 mmHg 95%
    12:00 0°C° 0.2 mm 5 m/S 747 mmHg 95%
    13:00 0°C° 0.2 mm 5 m/S 747 mmHg 95%
    14:00 0°C° 0 mm 5 m/S 748 mmHg 92%
    15:00 +1°C° 0 mm 5 m/S 748 mmHg 89%
    16:00 +1°C° 0 mm 5 m/S 749 mmHg 87%
    17:00 +1°C° 0 mm 4 m/S 749 mmHg 87%
    18:00 0°C° 0 mm 4 m/S 750 mmHg 87%
    19:00 0°C° 0 mm 4 m/S 750 mmHg 88%
    20:00 0°C° 0 mm 4 m/S 751 mmHg 89%
    21:00 0°C° 0 mm 4 m/S 751 mmHg 91%
    22:00 0°C° 0 mm 4 m/S 752 mmHg 92%
    23:00 0°C° 0.1 mm 4 m/S 752 mmHg 93%

    Morgen, 17 Oktober, Donnerstag

    Zeit Temperatur Niederschläge Wind Luftdruck Luftfeuchtigkeit
    00:00 -1°C° 0.1 mm 4 m/S 752 mmHg 93%
    01:00 -1°C° 0.1 mm 4 m/S 753 mmHg 93%
    02:00 -1°C° 0 mm 4 m/S 753 mmHg 91%
    03:00 -2°C° 0 mm 4 m/S 754 mmHg 90%
    04:00 -2°C° 0 mm 4 m/S 754 mmHg 88%
    05:00 -2°C° 0 mm 4 m/S 755 mmHg 88%
    06:00 -2°C° 0 mm 4 m/S 755 mmHg 88%
    07:00 -2°C° 0 mm 4 m/S 755 mmHg 88%
    08:00 -1°C° 0 mm 4 m/S 755 mmHg 84%
    09:00 -1°C° 0 mm 4 m/S 756 mmHg 81%
    10:00 0°C° 0 mm 4 m/S 756 mmHg 77%
    11:00 0°C° 0 mm 4 m/S 756 mmHg 75%
    12:00 0°C° 0 mm 4 m/S 756 mmHg 73%
    13:00 +1°C° 0 mm 4 m/S 756 mmHg 71%
    14:00 +1°C° 0 mm 3 m/S 756 mmHg 72%
    15:00 +1°C° 0 mm 3 m/S 756 mmHg 73%
    16:00 +1°C° 0 mm 3 m/S 756 mmHg 75%
    17:00 +1°C° 0 mm 2 m/S 756 mmHg 77%
    18:00 +1°C° 0 mm 2 m/S 756 mmHg 80%
    19:00 -1°C° 0 mm 2 m/S 756 mmHg 82%
    20:00 -1°C° 0 mm 2 m/S 755 mmHg 82%
    21:00 -1°C° 0 mm 2 m/S 755 mmHg 83%
    22:00 -1°C° 0 mm 2 m/S 755 mmHg 83%
    23:00 -1°C° 0.2 mm 2 m/S 754 mmHg 88%

    übermorgen, 18 Oktober, Freitag

    Zeit Temperatur Niederschläge Wind Luftdruck Luftfeuchtigkeit
    00:00 -1°C° 0.2 mm 2 m/S 754 mmHg 92%
    01:00 -1°C° 0.2 mm 2 m/S 753 mmHg 97%
    02:00 -1°C° 0.3 mm 2 m/S 753 mmHg 97%
    03:00 -1°C° 0.3 mm 2 m/S 753 mmHg 97%
    04:00 -1°C° 0.3 mm 2 m/S 752 mmHg 97%
    05:00 -1°C° 0.2 mm 2 m/S 752 mmHg 97%
    06:00 -1°C° 0.2 mm 2 m/S 751 mmHg 98%
    07:00 -1°C° 0.2 mm 2 m/S 751 mmHg 98%
    08:00 -1°C° 0.1 mm 2 m/S 751 mmHg 97%
    09:00 +1°C° 0.1 mm 2 m/S 751 mmHg 97%
    10:00 +1°C° 0.1 mm 2 m/S 750 mmHg 96%
    11:00 +1°C° 0.1 mm 2 m/S 751 mmHg 96%
    12:00 0°C° 0.1 mm 3 m/S 751 mmHg 96%
    13:00 0°C° 0.1 mm 3 m/S 751 mmHg 96%
    14:00 -1°C° 0.2 mm 4 m/S 751 mmHg 96%
    15:00 -1°C° 0.2 mm 4 m/S 752 mmHg 96%
    16:00 -2°C° 0.2 mm 5 m/S 752 mmHg 96%
    17:00 -2°C° 0.1 mm 5 m/S 753 mmHg 93%
    18:00 -2°C° 0.1 mm 5 m/S 754 mmHg 90%
    19:00 -4°C° 0.1 mm 5 m/S 755 mmHg 88%
    20:00 -4°C° 0 mm 5 m/S 755 mmHg 86%
    21:00 -3°C° 0 mm 4 m/S 756 mmHg 85%
    22:00 -4°C° 0 mm 4 m/S 757 mmHg 83%
    23:00 -5°C° 0 mm 4 m/S 758 mmHg 85%

    19 Oktober, Samstag

    Zeit Temperatur Niederschläge Wind Luftdruck Luftfeuchtigkeit
    00:00 -5°C° 0 mm 3 m/S 758 mmHg 86%
    01:00 -6°C° 0 mm 3 m/S 758 mmHg 87%
    02:00 -6°C° 0 mm 3 m/S 759 mmHg 87%
    03:00 -6°C° 0 mm 3 m/S 760 mmHg 87%
    04:00 -6°C° 0 mm 3 m/S 760 mmHg 88%
    05:00 -5°C° 0 mm 2 m/S 761 mmHg 87%
    06:00 -5°C° 0 mm 2 m/S 761 mmHg 87%
    07:00 -5°C° 0 mm 2 m/S 761 mmHg 86%
    08:00 -4°C° 0 mm 2 m/S 762 mmHg 81%
    09:00 -4°C° 0 mm 2 m/S 762 mmHg 75%
    10:00 -3°C° 0 mm 2 m/S 763 mmHg 70%
    11:00 -2°C° 0 mm 2 m/S 763 mmHg 66%
    12:00 -2°C° 0 mm 2 m/S 763 mmHg 62%
    13:00 +1°C° 0 mm 1 m/S 763 mmHg 59%
    14:00 +1°C° 0 mm 1 m/S 763 mmHg 62%
    15:00 0°C° 0 mm 1 m/S 763 mmHg 66%
    16:00 -1°C° 0 mm 0 m/S 763 mmHg 69%
    17:00 -2°C° 0 mm 0 m/S 764 mmHg 71%
    18:00 -2°C° 0 mm 0 m/S 764 mmHg 73%
    19:00 -3°C° 0 mm 0 m/S 764 mmHg 75%
    20:00 -2°C° 0 mm 1 m/S 764 mmHg 76%
    21:00 -2°C° 0 mm 1 m/S 764 mmHg 77%
    22:00 -2°C° 0 mm 1 m/S 764 mmHg 79%
    23:00 -4°C° 0 mm 2 m/S 764 mmHg 80%

    20 Oktober, Sonntag

    Zeit Temperatur Niederschläge Wind Luftdruck Luftfeuchtigkeit
    00:00 -5°C° 0 mm 2 m/S 764 mmHg 81%
    01:00 -5°C° 0 mm 2 m/S 764 mmHg 82%
    02:00 -5°C° 0 mm 2 m/S 764 mmHg 83%
    03:00 -5°C° 0 mm 2 m/S 764 mmHg 84%
    04:00 -5°C° 0 mm 2 m/S 764 mmHg 85%
    05:00 -6°C° 0 mm 3 m/S 764 mmHg 85%
    06:00 -6°C° 0 mm 3 m/S 764 mmHg 84%
    07:00 -6°C° 0 mm 3 m/S 764 mmHg 84%
    08:00 -5°C° 0 mm 4 m/S 764 mmHg 80%
    09:00 -4°C° 0 mm 4 m/S 764 mmHg 76%
    10:00 -4°C° 0 mm 5 m/S 764 mmHg 71%
    11:00 -2°C° 0 mm 5 m/S 763 mmHg 70%
    12:00 -1°C° 0 mm 5 m/S 763 mmHg 69%
    13:00 -1°C° 0 mm 5 m/S 762 mmHg 68%
    14:00 -1°C° 0 mm 4 m/S 762 mmHg 72%
    15:00 -2°C° 0 mm 4 m/S 762 mmHg 76%
    16:00 -2°C° 0 mm 4 m/S 762 mmHg 80%
    17:00 -2°C° 0 mm 4 m/S 762 mmHg 82%
    18:00 -3°C° 0 mm 4 m/S 762 mmHg 84%
    19:00 -3°C° 0 mm 4 m/S 762 mmHg 86%
    20:00 -3°C° 0 mm 4 m/S 761 mmHg 86%
    21:00 -3°C° 0 mm 4 m/S 761 mmHg 85%
    22:00 -4°C° 0 mm 4 m/S 761 mmHg 85%
    23:00 -4°C° 0 mm 4 m/S 761 mmHg 86%

    21 Oktober, Montag

    Zeit Temperatur Niederschläge Wind Luftdruck Luftfeuchtigkeit
    00:00 -4°C° 0 mm 3 m/S 761 mmHg 87%
    01:00 -4°C° 0 mm 3 m/S 761 mmHg 88%
    02:00 -4°C° 0 mm 3 m/S 761 mmHg 89%
    03:00 -2°C° 0 mm 3 m/S 761 mmHg 90%
    04:00 -3°C° 0 mm 4 m/S 760 mmHg 90%
    05:00 -3°C° 0 mm 4 m/S 760 mmHg 90%
    06:00 -3°C° 0 mm 4 m/S 760 mmHg 89%
    07:00 -3°C° 0 mm 4 m/S 760 mmHg 88%
    08:00 -2°C° 0 mm 4 m/S 760 mmHg 85%
    09:00 -1°C° 0 mm 4 m/S 760 mmHg 83%
    10:00 0°C° 0 mm 4 m/S 760 mmHg 80%
    11:00 +1°C° 0 mm 4 m/S 760 mmHg 79%
    12:00 +3°C° 0 mm 4 m/S 759 mmHg 78%
    13:00 +3°C° 0 mm 4 m/S 759 mmHg 76%
    14:00 +3°C° 0 mm 4 m/S 759 mmHg 80%
    15:00 +1°C° 0 mm 4 m/S 759 mmHg 83%
    16:00 +2°C° 0 mm 3 m/S 758 mmHg 87%
    17:00 0°C° 0 mm 4 m/S 758 mmHg 88%
    18:00 0°C° 0 mm 4 m/S 758 mmHg 88%
    19:00 0°C° 0 mm 4 m/S 758 mmHg 89%
    20:00 0°C° 0.1 mm 4 m/S 757 mmHg 89%
    21:00 0°C° 0.1 mm 4 m/S 757 mmHg 88%
    22:00 0°C° 0.1 mm 4 m/S 756 mmHg 88%
    23:00 0°C° 0.6 mm 4 m/S 756 mmHg 89%
    Mehr zeigen